Location: Nairn
(57.5833°N, 3.8667°W)
Time: 14:02:48
(UTC+00:00)

Vanguard 1 - Pass Details

Date: 27 November 2020
Orbit: 648 x 3834 km, 34.3° (Epoch: 17 January)

Event Time Altitude Azimuth Distance (km) Brightness Sun altitude
Rises 05:37:34 0° 199° (SSW) 3,828 13.0 -21.2°
Reaches altitude 10° 05:42:05 10° 170° (S) 3,398 13.0 -20.6°
Maximum altitude 05:45:15 12° 148° (SSE) 3,592 13.4 -20.2°
Drops below altitude 10° 05:49:01 10° 127° (SE) 4,233 14.2 -19.7°
Sets 05:56:38 0° 104° (ESE) 6,100 15.8 -18.6°
